Location: Carroll
(32.4774°N, 95.5202°W)
Time: 21:06:24
(UTC+02:00)

Daily predictions for brighter satellites

Satellite Brightness Start Highest point End
(mag) Time Altitude Azimuth Time Altitude Azimuth Time Altitude Azimuth
Cosmos 1743 3.6 12:11:10 10° N 12:14:09 45° NE 12:14:09 45° NE
Delta 2 Rocket 4.1 12:17:21 42° NE 12:17:21 42° NE 12:19:58 10° ENE
Cosmos 2227 Rocket 2.1 12:17:11 65° WSW 12:17:40 69° WNW 12:23:19 10° NNE
NOSS 3-2 (A) 4.3 12:13:12 10° NNW 12:20:51 69° ENE 12:28:57 10° SE
Cosmos 1607 3.9 12:23:12 49° W 12:24:10 54° WSW 12:30:13 10° S
CZ-4B R/B 3.4 12:20:17 10° N 12:23:54 53° NNW 12:23:54 53° NNW
USA 238 DEB 3.8 12:22:52 37° WNW 12:25:13 50° WSW 12:31:56 10° S
USA 238 3.8 12:22:45 35° WNW 12:25:19 51° WSW 12:32:03 10° S
Cosmos 2297 Rocket 2.0 12:25:25 42° SSW 12:27:25 81° WNW 12:33:05 10° NNE
Cosmos 1892 Rocket 4.1 12:23:35 11° S 12:27:44 59° E 12:32:09 10° NNE
Cosmos 773 Rocket 3.8 12:22:38 10° NNW 12:27:49 68° WSW 12:32:55 10° S
ADEOS II 2.4 12:24:07 10° NNE 12:29:21 65° ESE 12:34:33 10° S
Cosmos 2219 Rocket 2.1 12:25:54 10° NNW 12:31:33 70° WSW 12:37:10 10° S
Okean 2 3.7 12:31:50 12° S 12:35:33 68° E 12:39:41 10° NNE
USA 215 4.1 12:31:22 10° S 12:35:49 27° SW 12:35:49 27° SW
Cosmos 2344 4.5 12:36:24 27° WNW 12:38:29 30° NW 12:45:49 10° NNE
Cosmos 1727 Rocket 4.2 12:36:19 34° SW 12:38:31 47° W 12:44:34 10° N
ISS -3.1 12:40:32 62° SSE 12:40:32 62° SSE 12:43:22 10° SE
Cosmos 220 Rocket 4.3 12:41:01 44° WNW 12:41:01 44° WNW 12:44:49 10° N
CZ-4B DEB 4.4 12:36:33 10° N 12:41:49 49° WNW 12:43:54 32° SW
PSLV R/B 3.4 12:39:17 10° N 12:43:36 73° WNW 12:46:07 24° SSW
MOS 1 Rocket 4.1 12:43:28 10° NNE 12:48:13 56° E 12:53:13 10° S
Meteor 1-31 Rocket 3.6 12:47:39 10° NNE 12:51:28 53° E 12:55:18 10° S
Feng Yun 1-1 Rocket 4.3 12:45:53 10° NNE 12:51:34 90° WNW 12:57:22 10° SSW
FALCON 9 R/B 3.8 12:48:27 22° SW 12:53:04 66° SSE 13:17:00 10° ENE
Cosmos 2173 Rocket 4.0 12:47:46 10° N 12:53:53 80° E 13:00:02 10° S
Okean-O 2.5 12:51:38 10° N 12:56:03 66° WNW 13:00:25 10° SSW
Cosmos 2082 4.4 12:54:39 28° W 12:56:16 33° WNW 13:01:19 10° N
NOSS 3-2 (C) 4.0 12:49:46 10° NNW 12:57:31 88° WSW 13:05:43 10° SSE
Cosmos 2112 Rocket 3.9 12:53:23 10° NNW 12:58:41 76° WSW 13:03:53 10° S
Lacrosse 5 3.0 12:59:41 23° WNW 13:01:14 27° NW 13:05:32 10° NNE
Cosmos 2228 3.8 12:57:35 10° N 13:01:55 55° E 13:06:10 10° SSE
Cosmos 1680 Rocket 3.5 12:58:48 10° NNW 13:03:57 55° WSW 13:09:03 10° S
Cosmos 2333 Rocket 2.4 12:58:55 10° NW 13:04:19 46° WSW 13:09:40 10° S
Cosmos 1459 Rocket 4.0 12:58:17 10° N 13:04:40 81° W 13:10:57 10° S
OTV 4 1.3 13:04:28 25° NW 13:05:33 38° NNE 13:08:08 10° E
NOSS 2-2 (C) 4.4 13:03:18 10° S 13:07:11 47° ESE 13:11:22 10° NE
ADEOS Rocket 3.6 13:02:11 10° N 13:08:50 43° WNW 13:14:51 10° SW
Cosmos 2058 Rocket 2.9 13:04:40 10° N 13:09:02 81° W 13:13:23 10° S
NOSS 2-2 (E) 4.0 13:05:34 10° SSW 13:09:33 58° ESE 13:13:55 10° NE
Delta 142 3.8 13:09:50 22° WSW 13:12:24 49° S 13:16:20 10° ESE
Cosmos 2298 Rocket 4.1 13:09:11 10° SSW 13:14:21 56° WNW 13:19:35 10° N
CZ-4C R/B 4.0 13:11:40 12° WNW 13:16:30 21° WSW 13:22:06 10° SSW
COSMO-SKYMED 1 4.2 13:15:31 10° SE 13:19:32 39° ENE 13:23:35 10° N
Thor Agena Rocket 4.1 13:15:23 10° SSW 13:20:11 36° W 13:25:03 10° NNW
Cosmos 1515 4.1 13:16:40 10° S 13:20:27 66° E 13:24:15 10° NNE
Aureole 2 Rocket 4.0 13:17:45 10° N 13:20:58 37° ENE 13:23:54 10° SE
RESURS DK-1 3.9 13:22:43 16° W 13:23:54 17° WNW 13:26:41 10° NNW
Cosmos 1666 3.4 13:24:12 10° NNW 13:27:37 31° W 13:31:01 10° SSW
Tiangong 1 3.4 13:26:48 10° NW 13:28:34 14° N 13:30:19 10° NNE
Hubble Space Telescope 2.1 13:25:52 14° WSW 13:28:35 26° SSW 13:32:03 10° SE
Cosmos 2150 Rocket 4.3 13:24:46 10° SW 13:29:41 44° WNW 13:34:36 10° N
Cosmos 2227 4.4 13:24:54 10° SSW 13:30:39 83° ESE 13:36:26 10° NNE
Cosmos 292 Rocket 3.9 13:27:22 10° NNW 13:32:07 55° WSW 13:36:50 10° S
Cosmos 2237 Rocket 2.9 13:29:09 10° NW 13:33:58 30° WSW 13:38:45 10° SSW
SL-24 R/B 3.8 13:31:48 10° N 13:36:08 78° WNW 13:39:58 10° SSW
USA 129 2.6 13:34:45 10° SSW 13:36:35 26° W 13:38:21 10° NW
Cosmos 2098 Rocket 3.1 13:33:24 10° NNW 13:37:18 63° W 13:42:17 10° S
OAO 2 Rocket 3.8 13:34:35 10° WSW 13:39:49 62° SSE 13:45:05 10° ENE
Cosmos 1340 3.7 13:36:49 10° S 13:40:29 50° E 13:44:10 10° NNE
Cosmos 1626 Rocket 3.7 13:37:21 10° SSW 13:41:38 53° W 13:45:56 10° N
Radarsat Rocket 4.1 13:36:47 10° N 13:43:28 72° WNW 13:49:27 10° SSW
DELTA 2 R/B (1) 4.0 13:40:56 10° W 13:46:20 51° NNW 13:51:47 10° ENE
ATLAS 5 CENTAUR R/B 2.9 13:42:36 10° NW 13:48:26 42° WSW 13:54:31 10° S
Cosmos 990 Rocket 4.1 13:43:19 10° SSW 13:48:26 54° WNW 13:53:35 10° N
Ariane Rocket 3.0 13:44:48 10° N 13:49:54 73° WNW 13:54:58 10° SSW
Cosmos 1802 Rocket 4.5 13:46:36 10° NNW 13:52:07 36° W 13:57:37 10° SSW
SL-16 R/B 2.4 13:46:48 10° NNW 13:52:19 53° WSW 13:57:47 10° S
